sat.trackr.live / text

‹ back to catalog

UNKNOWN

NORAD 81488

UNKNOWN UNKNOWN UNKNOWN

§ Identity

Operator
Country
Launch date
Launch site
Launch vehicle
Mass (kg)
RCS (m²)

External: N2YO · Heavens-Above

§ Orbital elements

Epoch: 2026-05-23T10:39:04.523904Z

Period
106.15 min
Inclination
99.9818°
Eccentricity
0.0043906
Mean motion
13.56614011 rev/d
Perigee alt
1,015.4 km
Apogee alt
1,080.6 km
Semi-major
7,426.2 km
B*
6.3501e-4
RAAN
23.3697°
Arg perigee
319.9078°
Mean anomaly
220.9954°
Rev number
61,855

§ Raw data

UNKNOWN1 81488U          26143.44380236  .00000405  00000+0  63501-3 0  99912 81488  99.9818  23.3697 0043906 319.9078 220.9954 13.56614011618558

JSON: /api/v1/satellites/81488 · /tle

For live sub-satellite position, see the globe view (requires WebGL).

§ Visibility from observer

Set your observer location to see the next 7 days of passes ≥ 10°. The values pass through the URL so the page stays shareable.

No JS? Fill the form by hand. The geolocation button needs JavaScript.